1505332800.84,56555,15.56,73284.0,4.65,-10.97,-8.51,0,*4F
1505332802.06,56556,15.5,73214.0,4.65,-11.11,-8.51,0,*43
1505332803.3,56557,15.5,73270.3,4.63,-11.11,-8.51,0,*44
1505332804.52,56558,15.5,73312.3,4.63,-11.15,-8.63,0,*4E
1505332805.73,56559,15.56,73334.8,4.63,-11.15,-8.63,0,*4F
1505332806.95,56560,15.56,73336.8,4.65,-11.11,-8.51,0,*46
1505332808.14,56561,15.5,73360.5,4.65,-11.01,-8.37,0,*46
1505332809.36,56562,15.5,73364.0,4.65,-11.11,-8.51,0,*44
1505332810.57,56563,15.56,73388.0,4.63,-11.11,-8.55,0,*47
1505332811.82,56564,15.56,73426.3,4.63,-11.23,-8.51,0,*45
1505332813.03,56565,15.5,73422.5,4.65,-11.11,-8.51,0,*43
1505332814.28,56566,15.56,73412.0,4.63,-11.11,-8.51,0,*46
1505332815.49,56567,15.5,73384.5,4.63,-11.23,-8.63,0,*47
1505332816.73,56568,15.56,73370.0,4.65,-11.37,-8.81,0,*47
1505332817.95,56569,15.56,73372.5,4.63,-11.41,-8.75,0,*4A
1505332819.17,56570,15.56,73316.8,4.63,-11.41,-8.75,0,*42
1505332820.43,56571,15.56,73292.8,4.63,-11.55,-8.81,0,*4D
1505332821.65,56572,15.56,73336.3,4.65,-11.67,-8.89,0,*41
1505332822.92,56573,15.5,73366.8,4.63,-11.55,-8.81,0,*4F
1505332824.19,56574,15.5,73372.3,4.63,-11.67,-8.81,0,*49
1505332825.43,56575,15.56,73364.0,4.63,-11.63,-8.75,0,*47
1505332826.7,56576,15.56,73416.5,4.63,-11.55,-8.81,0,*4A
1505332827.94,56577,15.56,73406.5,4.61,-11.59,-8.81,0,*45
1505332829.16,56578,15.5,73438.0,4.61,-11.59,-8.71,0,*45
1505332830.38,56579,15.56,73436.3,4.61,-11.59,-8.71,0,*44
1505332831.6,56580,15.56,73434.3,4.61,-11.67,-8.71,0,*4F
1505332832.82,56581,15.56,73422.5,4.61,-11.59,-8.71,0,*43
1505332834.03,56582,15.56,73386.0,4.57,-11.67,-8.71,0,*48
1505332835.27,56583,15.56,73378.8,4.61,-11.73,-8.81,0,*46
1505332836.49,56584,15.56,73366.3,4.61,-11.85,-8.93,0,*4B
1505332837.71,56585,15.5,73364.5,4.61,-11.85,-8.97,0,*4E
1505332838.93,56586,15.56,73366.8,4.57,-11.85,-8.93,0,*4C
1505332840.15,56587,15.56,73414.5,4.57,-11.85,-8.85,0,*4A
1505332841.37,56588,15.56,73404.3,4.57,-11.85,-8.85,0,*45
1505332842.59,56589,15.56,73400.3,4.57,-11.85,-8.93,0,*43
1505332843.81,56590,15.56,73408.0,4.57,-11.85,-8.85,0,*4C
1505332845.04,56591,15.56,73420.8,4.57,-11.85,-8.81,0,*49
1505332846.28,56592,15.56,73442.0,4.57,-11.85,-8.81,0,*4A
1505332847.5,56593,15.56,73444.5,4.57,-11.89,-8.85,0,*43
1505332848.72,56594,15.56,73432.8,4.57,-11.89,-8.85,0,*44
1505332849.94,56595,15.56,73432.0,4.57,-11.89,-8.85,0,*45
1505332851.17,56596,15.56,73432.0,4.57,-11.89,-8.85,0,*46
1505332852.39,56597,15.56,73456.5,4.57,-11.89,-8.85,0,*47
1505332853.61,56598,15.56,73434.3,4.57,-11.89,-8.93,0,*4F
1505332854.8,56599,15.56,73422.0,4.57,-12.03,-8.97,0,*4B
1505332855.99,56600,15.56,73438.8,4.57,-12.03,-8.93,0,*4C
1505332857.18,56601,15.56,73454.0,4.57,-12.03,-8.93,0,*4D
1505332858.4,56602,15.56,73398.3,4.53,-12.15,-9.05,0,*43
1505332859.65,56603,15.56,73418.0,4.55,-12.15,-9.01,0,*40
1505332860.87,56604,15.5,73412.0,4.55,-12.21,-8.97,0,*4E
1505332862.1,56605,15.5,73428.0,4.55,-12.29,-9.01,0,*49
1505332863.33,56606,15.56,73432.5,4.55,-12.21,-8.89,0,*43
1505332864.55,56607,15.56,73356.0,4.53,-11.85,-8.63,0,*4D
1505332865.79,56608,15.56,73306.0,4.55,-11.93,-8.75,0,*44
1505332867.02,56609,15.56,73330.8,4.55,-12.21,-8.85,0,*40
1505332868.22,56610,15.56,73360.3,4.57,-12.25,-8.85,0,*4E
1505332869.42,56611,15.56,73380.8,4.57,-12.29,-8.97,0,*40
1505332870.66,56612,15.56,73390.8,4.57,-12.53,-9.11,0,*41
1505332871.91,56613,15.56,73420.3,4.57,-12.53,-9.11,0,*40
1505332873.13,56614,15.5,73468.0,4.57,-12.57,-9.05,0,*46
1505332874.34,56615,15.56,73438.3,4.57,-12.61,-9.05,0,*42
1505332875.58,56616,15.56,73456.3,4.57,-12.61,-9.15,0,*40
1505332876.85,56617,15.5,73438.0,4.55,-12.65,-9.11,0,*43
1505332878.07,56618,15.56,73448.8,4.57,-12.61,-9.05,0,*4F
1505332879.28,56619,15.56,73458.5,4.57,-12.71,-9.05,0,*4F
1505332880.51,56620,15.56,73448.0,4.57,-12.57,-8.85,0,*48
1505332881.72,56621,15.56,73426.5,4.57,-12.71,-9.05,0,*44
1505332882.95,56622,15.56,73444.3,4.57,-12.75,-9.05,0,*43
1505332884.19,56623,15.5,73452.5,4.55,-13.01,-9.27,0,*42
1505332885.41,56624,15.56,73438.5,4.57,-13.01,-9.23,0,*43
1505332886.62,56625,15.5,73448.5,4.57,-13.01,-9.23,0,*42
1505332887.83,56626,15.56,73444.0,4.55,-13.15,-9.31,0,*45
1505332889.08,56627,15.56,73450.3,4.55,-12.79,-9.01,0,*4C
1505332890.32,56628,15.56,73460.0,4.55,-12.65,-8.75,0,*4C
1505332891.54,56629,15.56,73430.5,4.55,-12.89,-9.01,0,*4D
1505332892.79,56630,15.5,73430.0,4.57,-13.01,-9.11,0,*47
1505332893.98,56631,15.56,73466.0,4.57,-13.15,-9.05,0,*46
1505332895.17,56632,15.56,73458.8,4.57,-13.11,-9.05,0,*41
1505332896.39,56633,15.56,73462.5,4.57,-13.23,-9.15,0,*40
1505332897.58,56634,15.56,73460.0,4.57,-13.23,-9.23,0,*42
1505332898.8,56635,15.56,73460.0,4.57,-13.37,-9.23,0,*46
1505332900.04,56636,15.56,73472.5,4.57,-13.29,-9.15,0,*4F
1505332901.26,56637,15.56,73446.8,4.57,-13.29,-9.05,0,*4F
1505332902.48,56638,15.56,73402.8,4.57,-13.37,-9.05,0,*4F
1505332903.7,56639,15.56,73416.0,4.57,-13.43,-9.15,0,*4C
1505332904.91,56640,15.56,73420.8,4.55,-13.47,-9.19,0,*48
1505332906.13,56641,15.56,73422.3,4.55,-13.55,-9.27,0,*47
1505332907.35,56642,15.56,73446.3,4.55,-13.55,-9.19,0,*49
1505332908.57,56643,15.56,73448.3,4.55,-13.55,-9.27,0,*45
1505332909.79,56644,15.56,73412.8,4.55,-13.65,-9.27,0,*41
1505332911.0,56645,15.56,73434.3,4.55,-13.73,-9.31,0,*40
1505332912.22,56646,15.56,73418.5,4.55,-13.65,-9.27,0,*43
1505332913.47,56647,15.56,73430.8,4.55,-13.73,-9.41,0,*45
1505332914.68,56648,15.5,73436.8,4.55,-13.73,-9.31,0,*4D
1505332915.92,56649,15.56,73446.3,4.55,-13.79,-9.31,0,*46
1505332917.14,56650,15.56,73442.8,4.55,-13.73,-9.27,0,*43
1505332918.33,56651,15.56,73446.3,4.57,-13.73,-9.27,0,*40
1505332919.58,56652,15.56,73422.5,4.57,-13.87,-9.37,0,*49
1505332920.83,56653,15.5,73390.8,4.57,-14.01,-9.49,0,*48
1505332922.06,56654,15.56,73412.5,4.57,-14.15,-9.61,0,*40
1505332923.25,56655,15.56,73424.5,4.57,-14.29,-9.67,0,*48
1505332924.48,56656,15.56,73426.8,4.57,-14.23,-9.53,0,*46
1505332925.71,56657,15.5,73402.5,4.57,-14.23,-9.61,0,*46
1505332926.93,56658,15.5,73410.3,4.57,-14.29,-9.61,0,*43
1505332928.18,56659,15.5,73440.8,4.55,-14.47,-9.75,0,*4D
1505332929.43,56660,15.56,73426.3,4.55,-14.47,-9.67,0,*44
1505332930.69,56661,15.56,73428.8,4.55,-14.47,-9.75,0,*46
1505332931.88,56662,15.56,73426.3,4.53,-14.65,-9.75,0,*43
1505332933.08,56663,15.56,73422.0,4.53,-14.65,-9.75,0,*42
1505332934.33,56664,15.56,73406.0,4.55,-14.51,-9.71,0,*40
1505332935.55,56665,15.56,73392.5,4.53,-14.69,-9.83,0,*41
1505332936.73,56666,15.56,73392.8,4.53,-14.69,-9.89,0,*48
1505332937.96,56667,15.5,73446.0,4.53,-14.83,-9.89,0,*4D
1505332939.17,56668,15.56,73402.8,4.53,-14.93,-9.89,0,*43
1505332940.39,56669,15.56,73394.8,4.53,-14.93,-9.89,0,*42
1505332941.61,56670,15.56,73406.0,4.53,-14.93,-9.89,0,*4A
1505332942.85,56671,15.56,73382.5,4.53,-14.93,-9.83,0,*41
1505332944.04,56672,15.56,73384.5,4.53,-15.07,-9.97,0,*4B
1505332945.25,56673,15.56,73374.5,4.53,-15.21,-9.89,0,*41
1505332946.48,56674,15.56,73394.5,4.53,-15.21,-10.01,0,*7E
1505332947.69,56675,15.5,73394.8,4.51,-15.11,-9.89,0,*46
1505332948.93,56676,15.56,73386.5,4.51,-14.97,-9.75,0,*49
1505332950.19,56677,15.56,73338.8,4.51,-14.79,-9.57,0,*48
1505332951.42,56678,15.56,73364.5,4.51,-14.97,-9.75,0,*47
1505332952.66,56679,15.5,73398.5,4.51,-15.07,-9.83,0,*47
1505332953.9,56680,15.56,73396.8,4.51,-14.97,-9.71,0,*44
1505332955.12,56681,15.56,73420.0,4.53,-14.69,-9.37,0,*44
1505332956.34,56682,15.56,73422.3,4.53,-14.65,-9.37,0,*4B
1505332957.58,56683,15.56,73426.5,4.53,-14.79,-9.45,0,*42
1505332958.8,56684,15.56,73388.5,4.55,-15.07,-9.67,0,*4B
1505332960.02,56685,15.56,73372.0,4.53,-15.21,-9.79,0,*47
1505332961.26,56686,15.56,73360.8,4.55,-15.35,-9.79,0,*47
1505332962.5,56687,15.56,73374.0,4.55,-15.21,-9.67,0,*4C
1505332963.75,56688,15.56,73378.5,4.55,-15.07,-9.53,0,*40
1505332964.99,56689,15.56,73372.0,4.53,-15.21,-9.49,0,*48
1505332966.21,56690,15.56,73354.8,4.55,-15.29,-9.79,0,*4D
1505332967.45,56691,15.56,73328.8,4.55,-15.39,-9.79,0,*4D
1505332968.67,56692,15.56,73344.3,4.57,-15.11,-9.41,0,*4D
1505332969.9,56693,15.56,73356.8,4.61,-14.97,-9.15,0,*47
1505332971.12,56694,15.56,73382.0,4.57,-15.29,-9.61,0,*42
1505332972.35,56695,15.56,73362.3,4.61,-15.43,-9.67,0,*4C
1505332973.55,56696,15.56,73362.5,4.61,-15.71,-9.79,0,*41
1505332974.74,56697,15.56,73346.3,4.61,-15.75,-9.89,0,*4B
1505332975.94,56698,15.5,73326.3,4.57,-15.75,-9.79,0,*4E
1505332977.17,56699,15.5,73350.8,4.61,-15.85,-9.93,0,*41
1505332978.39,56700,15.56,73340.0,4.57,-15.89,-9.93,0,*49
1505332979.58,56701,15.56,73354.8,4.61,-15.99,-9.97,0,*48
1505332980.85,56702,15.56,73328.0,4.63,-15.85,-9.83,0,*41
1505332982.05,56703,15.56,73368.3,4.61,-14.89,-9.05,0,*41
1505332983.25,56704,15.56,73368.0,4.61,-14.89,-9.05,0,*46
1505332984.47,56705,15.56,73340.3,4.63,-14.37,-8.41,0,*41
1505332985.74,56706,15.56,73340.5,4.63,-14.43,-8.51,0,*40
1505332987.0,56707,15.56,73340.8,4.67,-14.19,-8.07,0,*49
1505332988.2,56708,15.56,73306.8,4.69,-14.23,-8.29,0,*4D
1505332989.41,56709,15.56,73302.0,4.69,-14.43,-8.41,0,*44
1505332990.61,56710,15.56,73396.8,4.73,-14.37,-8.29,0,*4A
1505332991.81,56711,15.56,73394.8,4.73,-14.23,-8.25,0,*42
1505332993.0,56712,15.5,73428.0,4.73,-15.07,-8.89,0,*40
1505332994.22,56713,15.56,73398.3,4.73,-14.43,-8.41,0,*44
1505332995.41,56714,15.56,73396.3,4.77,-14.33,-8.33,0,*45
1505332996.62,56715,15.56,73418.3,4.77,-14.79,-8.75,0,*48
1505332997.85,56716,15.56,73400.0,4.77,-15.67,-9.45,0,*47
1505332999.06,56717,15.56,73408.0,4.77,-16.55,-10.35,0,*7B
1505333000.29,56718,15.56,73416.5,4.77,-16.23,-10.01,0,*72
1505333001.51,56719,15.56,73360.8,4.75,-15.99,-9.79,0,*44
1505333002.7,56720,15.56,73346.8,4.77,-16.03,-9.89,0,*43
1505333003.91,56721,15.56,73372.8,4.77,-16.37,-10.09,0,*75
1505333005.15,56722,15.5,73360.8,4.75,-16.41,-10.15,0,*78
1505333006.39,56723,15.56,73362.0,4.75,-16.27,-10.05,0,*78
1505333007.66,56724,15.5,73342.3,4.75,-16.17,-10.15,0,*7D
1505333008.91,56725,15.56,73380.8,4.75,-16.17,-10.01,0,*79
1505333010.11,56726,15.56,73370.3,4.77,-15.07,-9.01,0,*42
1505333011.36,56727,15.5,73356.8,4.75,-14.83,-8.89,0,*4D
1505333012.55,56728,15.56,73352.8,4.77,-15.11,-9.05,0,*4F
1505333013.75,56729,15.56,73366.0,4.77,-15.25,-9.27,0,*49
1505333015.0,56730,15.56,73356.0,4.75,-15.85,-9.75,0,*4E
1505333016.2,56731,15.56,73394.5,4.77,-15.75,-9.67,0,*41
1505333017.4,56732,15.56,73404.5,4.77,-16.03,-10.09,0,*70
1505333018.61,56733,15.56,73406.8,4.77,-16.37,-10.27,0,*7A
1505333019.82,56734,15.56,73422.0,4.77,-16.41,-10.53,0,*7F
1505333021.03,56735,15.5,73426.5,4.77,-16.55,-10.53,0,*7B
1505333022.28,56736,15.56,73438.3,4.75,-16.69,-10.57,0,*71
1505333023.56,56737,15.56,73438.8,4.75,-16.69,-10.71,0,*74
1505333024.81,56738,15.56,73426.3,4.75,-16.83,-10.71,0,*7F
1505333026.04,56739,15.56,73440.0,4.75,-16.75,-10.85,0,*7C
1505333027.26,56740,15.56,73446.8,4.75,-16.75,-10.85,0,*72
1505333028.52,56741,15.56,73412.0,4.75,-17.17,-11.15,0,*7E
1505333029.76,56742,15.56,73418.5,4.77,-17.59,-11.77,0,*71
1505333030.99,56743,15.56,73404.0,4.73,-17.73,-11.85,0,*71
1505333032.23,56744,15.56,73388.8,4.73,-17.79,-11.93,0,*7B
1505333033.46,56745,15.56,73356.3,4.73,-17.07,-11.15,0,*7D
1505333034.65,56746,15.56,73364.8,4.73,-15.99,-10.05,0,*7B
1505333035.87,56747,15.56,73364.0,4.73,-15.43,-9.75,0,*42
1505333037.09,56748,15.56,73346.0,4.73,-15.81,-9.93,0,*4B
1505333038.32,56749,15.56,73368.0,4.73,-16.17,-10.31,0,*76
1505333039.56,56750,15.56,73332.3,4.73,-16.41,-10.67,0,*7E
1505333040.78,56751,15.56,73388.3,4.73,-16.31,-10.53,0,*7F
1505333042.01,56752,15.56,73374.0,4.75,-15.95,-10.27,0,*74
1505333043.23,56753,15.56,73382.3,4.75,-15.99,-10.31,0,*7E
1505333044.47,56754,15.56,73386.8,4.77,-16.13,-10.35,0,*7E
1505333045.7,56755,15.56,73398.8,4.77,-16.23,-10.53,0,*7C
1505333046.9,56756,15.56,73442.8,4.77,-16.79,-10.85,0,*7B
1505333048.16,56757,15.56,73428.5,4.77,-16.13,-10.41,0,*7E
1505333049.42,56758,15.56,73414.0,4.77,-16.27,-10.63,0,*76
1505333050.65,56759,15.56,73440.5,4.79,-16.75,-11.01,0,*7B
1505333051.9,56760,15.56,73408.5,4.79,-17.07,-11.41,0,*71
1505333053.18,56761,15.56,73412.8,4.79,-17.11,-11.51,0,*76
1505333054.46,56762,15.56,73444.8,4.79,-17.25,-11.63,0,*73
1505333055.74,56763,15.56,73444.8,4.79,-17.21,-11.73,0,*77
1505333056.99,56764,15.56,73426.0,4.79,-17.49,-11.97,0,*74
1505333058.24,56765,15.56,73426.8,4.77,-17.41,-11.81,0,*74
1505333059.47,56766,15.56,73424.3,4.77,-17.55,-12.03,0,*7B
1505333060.7,56767,15.56,73442.8,4.77,-17.59,-12.03,0,*76
1505333061.97,56768,15.56,73392.0,4.75,-17.63,-12.11,0,*71
1505333063.2,56769,15.56,73396.0,4.75,-17.73,-12.25,0,*76
1505333064.4,56770,15.5,73362.8,4.77,-17.69,-12.29,0,*7B
1505333065.6,56771,15.56,73380.0,4.77,-17.69,-12.39,0,*7B
1505333066.83,56772,15.5,73406.0,4.77,-17.59,-12.03,0,*72
1505333068.05,56773,15.5,73378.3,4.77,-16.93,-11.77,0,*74
1505333069.28,56774,15.56,73388.3,4.77,-16.97,-11.89,0,*76
1505333070.51,56775,15.5,73448.5,4.77,-16.93,-11.89,0,*73
1505333071.76,56776,15.56,73476.3,4.75,-17.73,-12.53,0,*79
1505333072.99,56777,15.5,73454.5,4.77,-18.07,-12.79,0,*7E
1505333074.25,56778,15.56,73428.5,4.75,-18.07,-12.75,0,*7F
1505333075.47,56779,15.5,73330.3,4.75,-18.21,-12.93,0,*72
1505333076.72,56780,15.56,73308.0,4.75,-17.87,-12.65,0,*7E
1505333077.95,56781,15.56,73326.0,4.77,-18.07,-12.79,0,*77
1505333079.16,56782,15.5,73342.5,4.77,-18.17,-12.89,0,*7A
1505333080.41,56783,15.56,73394.8,4.75,-18.07,-12.83,0,*72
1505333081.69,56784,15.56,73396.0,4.75,-17.93,-12.79,0,*72
1505333082.97,56785,15.56,73430.5,4.75,-17.59,-12.35,0,*7D
1505333084.25,56786,15.56,73412.3,4.75,-17.21,-12.11,0,*77
1505333085.51,56787,15.56,73364.3,4.77,-17.45,-12.35,0,*70
1505333086.78,56788,15.56,73406.3,4.75,-17.93,-12.83,0,*7B
1505333088.0,56789,15.56,73394.5,4.77,-18.17,-13.01,0,*70
1505333089.23,56790,15.5,73398.8,4.77,-18.07,-13.01,0,*79
1505333090.46,56791,15.56,73396.8,4.77,-17.97,-12.89,0,*7F
1505333091.7,56792,15.56,73416.8,4.75,-19.03,-13.79,0,*73
1505333092.96,56793,15.5,73378.3,4.77,-19.57,-14.51,0,*7C
1505333094.2,56794,15.5,73374.5,4.75,-19.71,-14.65,0,*7A
1505333095.42,56795,15.5,73376.3,4.73,-20.05,-14.97,0,*79
1505333096.64,56796,15.5,73362.8,4.73,-20.09,-14.97,0,*76
1505333097.85,56797,15.56,73364.3,4.73,-19.85,-14.69,0,*78
1505333099.08,56798,15.5,73364.5,4.69,-18.83,-13.61,0,*74
1505333100.33,56799,15.56,73378.5,4.67,-18.45,-13.29,0,*7D
1505333101.53,56800,15.5,73362.8,4.73,-17.87,-12.93,0,*76
1505333102.73,56801,15.5,73350.5,4.73,-18.07,-13.07,0,*7C
1505333103.97,56802,15.56,73354.5,4.73,-17.63,-12.65,0,*77
1505333105.22,56803,15.56,73390.8,4.73,-17.63,-12.71,0,*73
1505333106.45,56804,15.56,73384.5,4.75,-18.21,-13.11,0,*7C
1505333107.7,56805,15.56,73404.5,4.75,-18.01,-13.07,0,*78
1505333108.92,56806,15.56,73420.3,4.77,-18.65,-13.79,0,*72
1505333110.14,56807,15.5,73408.5,4.75,-18.65,-13.69,0,*70
1505333111.38,56808,15.56,73370.3,4.75,-18.55,-13.65,0,*70
1505333112.6,56809,15.56,73406.5,4.77,-18.49,-13.79,0,*73
1505333113.83,56810,15.56,73384.8,4.77,-18.73,-14.05,0,*7E
1505333115.08,56811,15.56,73380.0,4.75,-19.17,-14.43,0,*7C
1505333116.36,56812,15.5,73374.0,4.75,-19.57,-14.79,0,*72
1505333117.62,56813,15.56,73430.8,4.75,-18.93,-14.23,0,*75
1505333118.85,56814,15.56,73428.8,4.75,-18.99,-14.29,0,*72
1505333120.1,56815,15.56,73408.0,4.75,-19.17,-14.51,0,*7B
1505333121.33,56816,15.5,73444.0,4.77,-18.99,-14.43,0,*7E
1505333122.58,56817,15.56,73442.5,4.75,-18.93,-14.37,0,*74
1505333123.84,56818,15.5,73314.8,4.75,-19.17,-14.55,0,*72
1505333125.12,56819,15.5,73288.8,4.75,-19.31,-14.79,0,*79
1505333126.37,56820,15.5,73442.5,4.75,-19.47,-14.97,0,*72
1505333127.63,56821,15.56,73466.5,4.75,-19.31,-15.07,0,*7A
1505333128.86,56822,15.56,73436.8,4.73,-19.71,-15.43,0,*7B
1505333130.11,56823,15.5,73412.5,4.73,-19.85,-15.57,0,*74
1505333131.37,56824,15.5,73404.8,4.73,-19.27,-14.93,0,*72
1505333132.61,56825,15.5,73392.5,4.73,-19.27,-15.07,0,*7F
1505333133.87,56826,15.5,73382.8,4.73,-19.57,-15.39,0,*76
1505333135.12,56827,15.56,73358.0,4.73,-19.41,-15.39,0,*70
1505333136.38,56828,15.5,73362.5,4.73,-19.57,-15.43,0,*75
1505333137.64,56829,15.5,73392.8,4.73,-19.31,-15.43,0,*74
1505333138.9,56830,15.5,73402.5,4.73,-19.31,-15.39,0,*71
1505333140.1,56831,15.5,73396.8,4.73,-18.99,-15.07,0,*7E
1505333141.3,56832,15.5,73394.5,4.73,-18.65,-14.69,0,*77
1505333142.52,56833,15.5,73362.8,4.73,-19.13,-15.29,0,*73
1505333143.76,56834,15.56,73418.0,4.73,-19.27,-15.53,0,*7E
1505333145.0,56835,15.56,73450.3,4.73,-19.13,-15.43,0,*79
1505333146.23,56836,15.5,73368.3,4.73,-19.17,-15.57,0,*7B
1505333147.43,56837,15.5,73368.0,4.73,-19.47,-15.95,0,*71
1505333148.66,56838,15.5,73340.8,4.73,-19.71,-16.17,0,*72
1505333149.86,56839,15.56,73374.8,4.73,-19.75,-16.41,0,*74
1505333151.06,56840,15.56,73414.5,4.73,-19.75,-16.41,0,*7A
1505333152.27,56841,15.5,73400.5,4.73,-19.95,-16.75,0,*72
1505333153.49,56842,15.56,73442.0,4.73,-20.05,-16.69,0,*7F
1505333154.71,56843,15.56,73428.3,4.73,-20.25,-17.03,0,*71
1505333155.96,56844,15.5,73440.8,4.73,-20.19,-17.07,0,*7D
1505333157.18,56845,15.56,73452.8,4.73,-20.25,-17.21,0,*77
1505333158.4,56846,15.56,73404.3,4.69,-20.25,-17.25,0,*7B
1505333159.61,56847,15.56,73396.3,4.73,-20.35,-17.31,0,*75
1505333160.84,56848,15.5,73414.8,4.69,-20.39,-17.41,0,*7A
1505333162.04,56849,15.5,73420.8,4.69,-20.39,-17.49,0,*73
1505333163.26,56850,15.56,73452.5,4.69,-20.29,-17.63,0,*72
1505333164.48,56851,15.5,73426.5,4.69,-20.53,-17.83,0,*70
1505333165.72,56852,15.5,73444.8,4.67,-20.43,-17.83,0,*7C
1505333166.96,56853,15.56,73464.3,4.65,-20.49,-17.93,0,*74
1505333168.19,56854,15.5,73478.0,4.65,-20.49,-18.07,0,*71
1505333169.44,56855,15.5,73462.0,4.65,-20.83,-18.35,0,*77
1505333170.69,56856,15.5,73442.0,4.63,-20.83,-18.49,0,*79
1505333171.94,56857,15.5,73466.0,4.63,-20.63,-18.35,0,*7D
1505333173.21,56858,15.5,73456.8,4.63,-20.79,-18.55,0,*7F
1505333174.46,56859,15.5,73440.8,4.63,-20.79,-18.65,0,*7D
1505333175.66,56860,15.5,73432.5,4.61,-21.13,-19.03,0,*79
1505333176.88,56861,15.5,73428.8,4.61,-21.33,-19.37,0,*7D
1505333178.09,56862,15.5,73424.8,4.61,-21.17,-19.37,0,*78
1505333179.28,56863,15.5,73418.3,4.57,-21.39,-19.47,0,*77
1505333180.51,56864,15.5,73420.0,4.57,-21.39,-19.61,0,*74
1505333181.76,56865,15.5,73428.3,4.55,-21.43,-19.65,0,*7E
1505333182.98,56866,15.5,73406.3,4.53,-21.33,-19.71,0,*79
1505333184.21,56867,15.5,73420.5,4.53,-21.27,-19.71,0,*7D
1505333185.46,56868,15.5,73426.8,4.51,-21.23,-19.75,0,*70
1505333186.68,56869,15.5,73416.5,4.51,-21.09,-19.75,0,*79
1505333187.92,56870,15.5,73410.3,4.51,-20.99,-19.71,0,*7D
1505333189.18,56871,15.5,73434.3,4.49,-21.33,-20.19,0,*70
1505333190.43,56872,15.56,73424.3,4.47,-21.33,-20.25,0,*72
1505333191.66,56873,15.5,73412.3,4.49,-21.17,-20.19,0,*74
1505333192.89,56874,15.56,73416.0,4.49,-21.03,-20.09,0,*77
1505333194.15,56875,15.5,73422.5,4.47,-21.03,-20.25,0,*76
1505333195.4,56876,15.5,73422.3,4.47,-20.83,-19.95,0,*7D
1505333196.62,56877,15.5,73416.3,4.45,-20.79,-19.99,0,*77
1505333197.85,56878,15.5,73424.3,4.47,-20.73,-20.09,0,*73
1505333199.08,56879,15.5,73426.0,4.47,-20.89,-20.25,0,*79
1505333200.33,56880,15.5,73428.5,4.47,-20.83,-20.29,0,*79
1505333201.57,56881,15.5,73430.5,4.45,-21.03,-20.43,0,*7F
1505333202.79,56882,15.5,73430.8,4.45,-21.09,-20.49,0,*7C
1505333204.0,56883,15.5,73434.8,4.45,-21.09,-20.59,0,*7C
1505333205.2,56884,15.5,73428.8,4.45,-21.09,-20.63,0,*72
1505333206.45,56885,15.5,73424.0,4.41,-21.03,-20.83,0,*73
1505333207.7,56886,15.5,73426.8,4.43,-21.17,-20.79,0,*72
1505333208.92,56887,15.5,73426.3,4.43,-21.09,-20.93,0,*78
1505333210.16,56888,15.5,73422.5,4.43,-21.09,-21.03,0,*7F
1505333211.42,56889,15.5,73426.8,4.41,-21.23,-21.23,0,*76
1505333212.65,56890,15.5,73420.5,4.43,-21.17,-21.17,0,*7C
1505333213.9,56891,15.5,73418.5,4.43,-21.17,-21.23,0,*7A
1505333215.13,56892,15.5,73414.5,4.41,-21.09,-21.23,0,*74
1505333216.38,56893,15.5,73412.3,4.43,-21.33,-21.39,0,*75
1505333217.57,56894,15.5,73418.0,4.41,-21.39,-21.43,0,*77
1505333218.8,56895,15.5,73412.8,4.41,-21.27,-21.47,0,*7D
1505333220.02,56896,15.5,73420.8,4.41,-21.39,-21.57,0,*70
1505333221.22,56897,15.5,73418.0,4.41,-21.39,-21.77,0,*73
1505333222.42,56898,15.5,73408.3,4.41,-21.47,-21.93,0,*7F
1505333223.67,56899,15.5,73404.8,4.39,-21.53,-22.07,0,*7A
1505333224.92,56900,15.5,73416.8,4.35,-21.53,-22.11,0,*70
1505333226.18,56901,15.5,73418.8,4.35,-21.53,-22.27,0,*74
1505333227.43,56902,15.5,73424.8,4.39,-21.53,-22.37,0,*7A
1505333228.68,56903,15.5,73426.0,4.35,-21.67,-22.37,0,*70
1505333229.89,56904,15.5,73426.3,4.35,-21.63,-22.37,0,*73
1505333231.15,56905,15.5,73432.3,4.35,-21.63,-22.47,0,*75
1505333232.38,56906,15.5,73426.5,4.33,-21.83,-22.53,0,*7B
1505333233.63,56907,15.5,73422.8,4.35,-21.67,-22.63,0,*75
1505333234.86,56908,15.5,73428.3,4.31,-21.73,-22.67,0,*7F
1505333236.09,56909,15.5,73420.3,4.33,-21.67,-22.67,0,*79
1505333237.29,56910,15.5,73436.3,4.33,-21.73,-22.83,0,*7E
1505333238.5,56911,15.5,73450.3,4.33,-21.73,-22.97,0,*7A
1505333239.73,56912,15.5,73444.5,4.33,-21.67,-23.13,0,*71
1505333240.99,56913,15.5,73428.8,4.31,-21.73,-23.23,0,*74
1505333242.24,56914,15.5,73444.0,4.33,-21.87,-23.29,0,*70
1505333243.52,56915,15.5,73412.5,4.31,-21.83,-23.29,0,*77
1505333244.78,56916,15.5,73386.8,4.31,-21.87,-23.43,0,*7C
1505333246.03,56917,15.5,73356.0,4.31,-20.73,-22.31,0,*73
1505333247.26,56918,15.5,73346.5,4.31,-18.73,-19.99,0,*7D
1505333248.49,56919,15.5,73322.3,4.39,-17.49,-18.73,0,*77
1505333249.73,56920,15.5,73332.3,4.39,-17.07,-18.25,0,*74
1505333250.92,56921,15.5,73322.8,4.45,-17.73,-19.07,0,*7C
1505333252.15,56922,15.5,73332.0,4.47,-18.99,-20.43,0,*7C
1505333253.43,56923,15.5,73346.5,4.51,-19.31,-20.99,0,*7E
1505333254.68,56924,15.5,73296.0,4.51,-19.41,-20.93,0,*74
1505333255.92,56925,15.5,73322.5,4.53,-19.13,-20.79,0,*74
1505333257.17,56926,15.5,73346.5,4.55,-18.89,-20.59,0,*71
1505333258.43,56927,15.5,73348.3,4.55,-18.31,-19.95,0,*79
1505333259.63,56928,15.5,73294.8,4.61,-19.75,-21.47,0,*74
1505333260.85,56929,15.5,73322.5,4.61,-20.29,-21.97,0,*7B
1505333262.08,56930,15.5,73296.0,4.61,-19.95,-21.83,0,*7B
1505333263.32,56931,15.5,73358.5,4.61,-20.59,-22.47,0,*7B
1505333264.54,56932,15.5,73356.5,4.61,-20.73,-22.73,0,*77
1505333265.75,56933,15.5,73348.0,4.65,-20.35,-22.27,0,*71
1505333267.01,56934,15.5,73386.8,4.63,-20.53,-22.53,0,*73
1505333268.26,56935,15.5,73374.8,4.63,-20.99,-22.97,0,*7C
1505333269.51,56936,15.5,73382.5,4.63,-21.09,-23.03,0,*7B
1505333270.77,56937,15.5,73378.8,4.63,-21.17,-23.23,0,*77
1505333272.05,56938,15.5,73396.8,4.63,-21.27,-23.33,0,*7A
1505333273.3,56939,15.5,73404.5,4.61,-21.23,-23.29,0,*76
1505333274.52,56940,15.5,73410.5,4.57,-21.17,-23.29,0,*7A
1505333275.74,56941,15.5,73414.5,4.57,-21.17,-23.19,0,*78
1505333276.94,56942,15.5,73418.0,4.61,-21.13,-23.39,0,*78
1505333278.14,56943,15.5,73374.3,4.61,-21.13,-23.39,0,*79
1505333279.35,56944,15.5,73362.8,4.61,-21.17,-23.43,0,*77
1505333280.55,56945,15.5,73348.8,4.57,-21.13,-23.39,0,*7A
1505333281.78,56946,15.5,73372.8,4.57,-20.89,-23.19,0,*79
1505333283.02,56947,15.5,73376.3,4.57,-20.99,-23.29,0,*7A
1505333284.27,56948,15.5,73370.3,4.57,-20.99,-23.19,0,*76
1505333285.47,56949,15.5,73334.5,4.57,-21.13,-23.39,0,*76
1505333286.71,56950,15.5,73428.8,4.57,-21.33,-23.69,0,*79
1505333287.96,56951,15.5,73382.0,4.57,-21.33,-23.69,0,*78
1505333289.18,56952,15.5,73390.8,4.57,-21.53,-23.89,0,*73
1505333290.43,56953,15.5,73336.5,4.57,-21.53,-23.99,0,*73
1505333291.7,56954,15.5,73386.3,4.55,-21.97,-24.41,0,*7C
1505333292.9,56955,15.5,73346.3,4.53,-22.03,-24.47,0,*73
1505333294.13,56956,15.5,73372.5,4.53,-21.87,-24.35,0,*7A
1505333295.41,56957,15.5,73352.0,4.55,-21.67,-24.25,0,*72
1505333296.61,56958,15.5,73390.0,4.53,-21.77,-24.35,0,*7B
1505333297.81,56959,15.5,73350.0,4.53,-22.03,-24.47,0,*7F
1505333299.06,56960,15.5,73350.0,4.53,-22.17,-24.67,0,*72
1505333300.26,56961,15.5,73398.8,4.53,-22.27,-24.77,0,*71
1505333301.53,56962,15.5,73388.8,4.51,-22.21,-24.67,0,*77
1505333302.76,56963,15.5,73358.5,4.49,-22.41,-24.83,0,*73
1505333304.0,56964,15.5,73336.5,4.51,-22.41,-24.83,0,*7D
1505333305.25,56965,15.5,73332.3,4.49,-22.21,-24.83,0,*73
1505333306.47,56966,15.5,73338.8,4.49,-22.27,-24.67,0,*7C
1505333307.72,56967,15.5,73378.3,4.47,-22.11,-24.83,0,*7C